Skip Page Navigation
NASA JPL Caltech
NASA Logo - Jet Propulsion Laboratory + View the NASA Portal
+ Center for Near-Earth Object Studies
JPL Home Earth Solar System Stars & Galaxies Technology
JPL Solar System Dynamics
BODIES ORBITS EPHEMERIDES TOOLS PHYSICAL DATA DISCOVERY FAQ SITE MAP
JPL Small-Body Database Browser
Search: [ help ]  
447402 (2006 BV133)
Classification: Main-belt Asteroid          SPK-ID: 2447402
Ephemeris | Orbit Diagram | Orbital Elements | Mission Design | Physical Parameters | Discovery Circumstances ]

[ show orbit diagram ]
Orbital Elements at Epoch 2459000.5 (2020-May-31.0) TDB
Reference: JPL 11 (heliocentric ecliptic J2000)
 Element Value Uncertainty (1-sigma)   Units 
e .05499243476138444 6.3196e-08  
a 2.365816109850977 2.6018e-08 au
q 2.235714121772565 1.5985e-07 au
i 6.536343146230263 7.5175e-06 deg
node 342.4147314681574 4.3645e-05 deg
peri 39.36194540541471 7.4118e-05 deg
M 107.7155456619735 6.3511e-05 deg
tp 2458602.808975885519
(2019-Apr-29.30897589)
0.00023156 TDB
period 1329.137477801921
3.64
2.1925e-05
6.003e-08
d
yr
n .2708523429761041 4.468e-09 deg/d
Q 2.49591809792939 2.7448e-08 au
  Orbit Determination Parameters
   # obs. used (total)      134  
   data-arc span      4583 days (12.55 yr)  
   first obs. used      2006-01-26  
   last obs. used      2018-08-14  
   planetary ephem.      DE431  
   SB-pert. ephem.      SB431-N16  
   condition code      0  
   norm. resid. RMS      .47258  
   source      ORB  
   producer      Otto Matic  
   solution date      2019-Jul-14 15:51:07  

Additional Information
 Earth MOID = 1.2406 au 
 Jupiter MOID = 2.72127 au 
 T_jup = 3.537 
[ show covariance matrix ]

Ephemeris | Orbit Diagram | Orbital Elements | Mission Design | Physical Parameters | Discovery Circumstances ]

Physical Parameter Table
Parameter Symbol Value Units Sigma Reference Notes
absolute magnitude H 17.2   n/a MPO456119  

447402 (2006 BV133)          Discovered 2006-Jan-26 by Mt. Lemmon Survey at Mount Lemmon
Reference: Last Updated: 2015-10-28

Alternate Designations
 2006 BV133 = 2011 SB207 
Ephemeris | Orbit Diagram | Orbital Elements | Mission Design | Physical Parameters | Discovery Circumstances ]
ABOUT SSD CREDITS/AWARDS PRIVACY/COPYRIGHT GLOSSARY LINKS
FirstGov 2020-Jul-09 09:46 UT
(server date/time)  
NASA Home Page
Site Manager:   Ryan S. Park
Webmaster  Alan B. Chamberlin